Year,Month,Day,Hour,Minute,Value (Times are PST for temperature in C)
2021,04,19,00,00,14.10
2021,04,19,00,01,14.20
2021,04,19,00,02,14.20
2021,04,19,00,03,14.20
2021,04,19,00,04,14.20
2021,04,19,00,05,14.20
2021,04,19,00,06,14.20
2021,04,19,00,07,14.10
2021,04,19,00,08,14.10
2021,04,19,00,09,14.00
2021,04,19,00,10,14.00
2021,04,19,00,11,13.90
2021,04,19,00,12,13.80
2021,04,19,00,13,13.80
2021,04,19,00,14,13.80
2021,04,19,00,15,13.70
2021,04,19,00,16,13.70
2021,04,19,00,17,13.60
2021,04,19,00,18,13.60
2021,04,19,00,19,13.60
2021,04,19,00,20,13.50
2021,04,19,00,21,13.50
2021,04,19,00,22,13.40
2021,04,19,00,23,13.40
2021,04,19,00,24,13.40
2021,04,19,00,25,13.40
2021,04,19,00,26,13.40
2021,04,19,00,27,13.30
2021,04,19,00,28,13.30
2021,04,19,00,29,13.30
2021,04,19,00,30,13.30
2021,04,19,00,31,13.30
2021,04,19,00,32,13.20
2021,04,19,00,33,13.10
2021,04,19,00,34,13.10
2021,04,19,00,35,13.00
2021,04,19,00,36,12.90
2021,04,19,00,37,12.80
2021,04,19,00,38,12.80
2021,04,19,00,39,12.70
2021,04,19,00,40,12.70
2021,04,19,00,41,12.60
2021,04,19,00,42,12.50
2021,04,19,00,43,12.50
2021,04,19,00,44,12.40
2021,04,19,00,45,12.40
2021,04,19,00,46,12.30
2021,04,19,00,47,12.30
2021,04,19,00,48,12.20
2021,04,19,00,49,12.20
2021,04,19,00,50,12.10
2021,04,19,00,51,12.10
2021,04,19,00,52,12.10
2021,04,19,00,53,12.10
2021,04,19,00,54,12.00
2021,04,19,00,55,12.00
2021,04,19,00,56,12.00
2021,04,19,00,57,11.90
2021,04,19,00,58,11.90
2021,04,19,00,59,11.90
2021,04,19,01,00,11.90
2021,04,19,01,01,11.90
2021,04,19,01,02,11.90
2021,04,19,01,03,11.90
2021,04,19,01,04,11.90
2021,04,19,01,05,11.90
2021,04,19,01,06,11.90
2021,04,19,01,07,12.00
2021,04,19,01,08,12.00
2021,04,19,01,09,12.00
2021,04,19,01,10,12.00
2021,04,19,01,11,12.00
2021,04,19,01,12,11.90
2021,04,19,01,13,11.90
2021,04,19,01,14,11.90
2021,04,19,01,15,11.90
2021,04,19,01,16,11.90
2021,04,19,01,17,11.90
2021,04,19,01,18,11.90
2021,04,19,01,19,11.90
2021,04,19,01,20,11.90
2021,04,19,01,21,11.90
2021,04,19,01,22,11.90
2021,04,19,01,23,11.90
2021,04,19,01,24,11.90
2021,04,19,01,25,11.90
2021,04,19,01,26,11.90
2021,04,19,01,27,11.90
2021,04,19,01,28,11.90
2021,04,19,01,29,11.90
2021,04,19,01,30,11.90
2021,04,19,01,31,11.90
2021,04,19,01,32,11.90
2021,04,19,01,33,11.90
2021,04,19,01,34,11.90
2021,04,19,01,35,11.90
2021,04,19,01,36,11.90
2021,04,19,01,37,11.90
2021,04,19,01,38,11.90
2021,04,19,01,39,11.90
2021,04,19,01,40,11.90
2021,04,19,01,41,11.90
2021,04,19,01,42,12.00
2021,04,19,01,43,12.00
2021,04,19,01,44,12.00
2021,04,19,01,45,12.10
2021,04,19,01,46,12.10
2021,04,19,01,47,12.10
2021,04,19,01,48,12.10
2021,04,19,01,49,12.10
2021,04,19,01,50,12.10
2021,04,19,01,51,12.10
2021,04,19,01,52,12.20
2021,04,19,01,53,12.20
2021,04,19,01,54,12.20
2021,04,19,01,55,12.20
2021,04,19,01,56,12.20
2021,04,19,01,57,12.20
2021,04,19,01,58,12.30
2021,04,19,01,59,12.30
2021,04,19,02,00,12.30
2021,04,19,02,01,12.30
2021,04,19,02,02,12.30
2021,04,19,02,03,12.30
2021,04,19,02,04,12.30
2021,04,19,02,05,12.30
2021,04,19,02,06,12.30
2021,04,19,02,07,12.30
2021,04,19,02,08,12.30
2021,04,19,02,09,12.30
2021,04,19,02,10,12.30
2021,04,19,02,11,12.30
2021,04,19,02,12,12.30
2021,04,19,02,13,12.30
2021,04,19,02,14,12.30
2021,04,19,02,15,12.30
2021,04,19,02,16,12.40
2021,04,19,02,17,12.40
2021,04,19,02,18,12.50
2021,04,19,02,19,12.60
2021,04,19,02,20,12.70
2021,04,19,02,21,12.90
2021,04,19,02,22,13.00
2021,04,19,02,23,13.10
2021,04,19,02,24,13.20
2021,04,19,02,25,13.30
2021,04,19,02,26,13.40
2021,04,19,02,27,13.60
2021,04,19,02,28,13.70
2021,04,19,02,29,13.80
2021,04,19,02,30,13.90
2021,04,19,02,31,14.00
2021,04,19,02,32,14.20
2021,04,19,02,33,14.30
2021,04,19,02,34,14.30
2021,04,19,02,35,14.50
2021,04,19,02,36,14.60
2021,04,19,02,37,14.60
2021,04,19,02,38,14.70
2021,04,19,02,39,14.80
2021,04,19,02,40,14.90
2021,04,19,02,41,15.00
2021,04,19,02,42,15.10
2021,04,19,02,43,15.20
2021,04,19,02,44,15.30
2021,04,19,02,45,15.30
2021,04,19,02,46,15.40
2021,04,19,02,47,15.40
2021,04,19,02,48,15.50
2021,04,19,02,49,15.50
2021,04,19,02,50,15.50
2021,04,19,02,51,15.50
2021,04,19,02,52,15.50
2021,04,19,02,53,15.50
2021,04,19,02,54,15.50
2021,04,19,02,55,15.60
2021,04,19,02,56,15.60
2021,04,19,02,57,15.60
2021,04,19,02,58,15.60
2021,04,19,02,59,15.60
2021,04,19,03,00,15.60
2021,04,19,03,01,15.60
2021,04,19,03,02,15.60
2021,04,19,03,03,15.60
2021,04,19,03,04,15.60
2021,04,19,03,05,15.60
2021,04,19,03,06,15.60
2021,04,19,03,07,15.60
2021,04,19,03,08,15.60
2021,04,19,03,09,15.60
2021,04,19,03,10,15.60
2021,04,19,03,11,15.60
2021,04,19,03,12,15.60
2021,04,19,03,13,15.50
2021,04,19,03,14,15.50
2021,04,19,03,15,15.50
2021,04,19,03,16,15.40
2021,04,19,03,17,15.40
2021,04,19,03,18,15.40
2021,04,19,03,19,15.40
2021,04,19,03,20,15.30
2021,04,19,03,21,15.30
2021,04,19,03,22,15.30
2021,04,19,03,23,15.30
2021,04,19,03,24,15.30
2021,04,19,03,25,15.30
2021,04,19,03,26,15.20
2021,04,19,03,27,15.20
2021,04,19,03,28,15.20
2021,04,19,03,29,15.20
2021,04,19,03,30,15.10
2021,04,19,03,31,15.10
2021,04,19,03,32,15.10
2021,04,19,03,33,15.10
2021,04,19,03,34,15.10
2021,04,19,03,35,15.00
2021,04,19,03,36,15.00
2021,04,19,03,37,14.90
2021,04,19,03,38,14.90
2021,04,19,03,39,14.90
2021,04,19,03,40,14.90
2021,04,19,03,41,14.80
2021,04,19,03,42,14.80
2021,04,19,03,43,14.80
2021,04,19,03,44,14.80
2021,04,19,03,45,14.80
2021,04,19,03,46,14.70
2021,04,19,03,47,14.70
2021,04,19,03,48,14.70
2021,04,19,03,49,14.60
2021,04,19,03,50,14.60
2021,04,19,03,51,14.50
2021,04,19,03,52,14.50
2021,04,19,03,53,14.40
2021,04,19,03,54,14.40
2021,04,19,03,55,14.30
2021,04,19,03,56,14.30
2021,04,19,03,57,14.30
2021,04,19,03,58,14.20
2021,04,19,03,59,14.20
2021,04,19,04,00,14.20
2021,04,19,04,01,14.10
2021,04,19,04,02,14.10
2021,04,19,04,03,14.10
2021,04,19,04,04,14.10
2021,04,19,04,05,14.00
2021,04,19,04,06,14.00
2021,04,19,04,07,14.00
2021,04,19,04,08,14.00
2021,04,19,04,09,14.00
2021,04,19,04,10,13.90
2021,04,19,04,11,13.90
2021,04,19,04,12,13.90
2021,04,19,04,13,13.90
2021,04,19,04,14,13.80
2021,04,19,04,15,13.80
2021,04,19,04,16,13.80
2021,04,19,04,17,13.80
2021,04,19,04,18,13.80
2021,04,19,04,19,13.80
2021,04,19,04,20,13.70
2021,04,19,04,21,13.70
2021,04,19,04,22,13.70
2021,04,19,04,23,13.70
2021,04,19,04,24,13.70
2021,04,19,04,25,13.70
2021,04,19,04,26,13.70
2021,04,19,04,27,13.70
2021,04,19,04,28,13.70
2021,04,19,04,29,13.70
2021,04,19,04,30,13.70
2021,04,19,04,31,13.70
2021,04,19,04,32,13.70
2021,04,19,04,33,13.70
2021,04,19,04,34,13.70
2021,04,19,04,35,13.80
2021,04,19,04,36,13.80
2021,04,19,04,37,13.80
2021,04,19,04,38,13.80
2021,04,19,04,39,13.80
2021,04,19,04,40,13.80
2021,04,19,04,41,13.80
2021,04,19,04,42,13.80
2021,04,19,04,43,13.80
2021,04,19,04,44,13.80
2021,04,19,04,45,13.80
2021,04,19,04,46,13.80
2021,04,19,04,47,13.70
2021,04,19,04,48,13.70
2021,04,19,04,49,13.60
2021,04,19,04,50,13.60
2021,04,19,04,51,13.50
2021,04,19,04,52,13.40
2021,04,19,04,53,13.30
2021,04,19,04,54,13.30
2021,04,19,04,55,13.10
2021,04,19,04,56,13.00
2021,04,19,04,57,12.90
2021,04,19,04,58,12.80
2021,04,19,04,59,12.80
2021,04,19,05,00,12.70
2021,04,19,05,01,12.60
2021,04,19,05,02,12.50
2021,04,19,05,03,12.40
2021,04,19,05,04,12.30
2021,04,19,05,05,12.20
2021,04,19,05,06,12.20
2021,04,19,05,07,12.10
2021,04,19,05,08,12.00
2021,04,19,05,09,12.00
2021,04,19,05,10,11.90
2021,04,19,05,11,11.80
2021,04,19,05,12,11.80
2021,04,19,05,13,11.70
2021,04,19,05,14,11.60
2021,04,19,05,15,11.60
2021,04,19,05,16,11.50
2021,04,19,05,17,11.40
2021,04,19,05,18,11.40
2021,04,19,05,19,11.30
2021,04,19,05,20,11.30
2021,04,19,05,21,11.30
2021,04,19,05,22,11.20
2021,04,19,05,23,11.20
2021,04,19,05,24,11.20
2021,04,19,05,25,11.10
2021,04,19,05,26,11.10
2021,04,19,05,27,11.00
2021,04,19,05,28,11.00
2021,04,19,05,29,11.00
2021,04,19,05,30,10.90
2021,04,19,05,31,10.90
2021,04,19,05,32,10.90
2021,04,19,05,33,10.90
2021,04,19,05,34,10.90
2021,04,19,05,35,10.90
2021,04,19,05,36,10.90
2021,04,19,05,37,10.80
2021,04,19,05,38,10.80
2021,04,19,05,39,10.80
2021,04,19,05,40,10.80
2021,04,19,05,41,10.80
2021,04,19,05,42,10.80
2021,04,19,05,43,10.80
2021,04,19,05,44,10.70
2021,04,19,05,45,10.70
2021,04,19,05,46,10.70
2021,04,19,05,47,10.70
2021,04,19,05,48,10.70
2021,04,19,05,49,10.70
2021,04,19,05,50,10.70
2021,04,19,05,51,10.70
2021,04,19,05,52,10.70
2021,04,19,05,53,10.70
2021,04,19,05,54,10.70
2021,04,19,05,55,10.60
2021,04,19,05,56,10.60
2021,04,19,05,57,10.60
2021,04,19,05,58,10.60
2021,04,19,05,59,10.60
2021,04,19,06,00,10.60
2021,04,19,06,01,10.70
2021,04,19,06,02,10.70
2021,04,19,06,03,10.70
2021,04,19,06,04,10.70
2021,04,19,06,05,10.70
2021,04,19,06,06,10.70
2021,04,19,06,07,10.70
2021,04,19,06,08,10.70
2021,04,19,06,09,10.70
2021,04,19,06,10,10.70
2021,04,19,06,11,10.70
2021,04,19,06,12,10.70
2021,04,19,06,13,10.80
2021,04,19,06,14,10.80
2021,04,19,06,15,10.80
2021,04,19,06,16,10.80
2021,04,19,06,17,10.80
2021,04,19,06,18,10.90
2021,04,19,06,19,10.90
2021,04,19,06,20,10.90
2021,04,19,06,21,10.90
2021,04,19,06,22,10.90
2021,04,19,06,23,10.90
2021,04,19,06,24,10.90
2021,04,19,06,25,10.90
2021,04,19,06,26,10.90
2021,04,19,06,27,10.90
2021,04,19,06,28,10.90
2021,04,19,06,29,10.90
2021,04,19,06,30,10.90
2021,04,19,06,31,10.80
2021,04,19,06,32,10.80
2021,04,19,06,33,10.80
2021,04,19,06,34,10.80
2021,04,19,06,35,10.80
2021,04,19,06,36,10.80
2021,04,19,06,37,10.80
2021,04,19,06,38,10.80
2021,04,19,06,39,10.80
2021,04,19,06,40,10.80
2021,04,19,06,41,10.80
2021,04,19,06,42,10.70
2021,04,19,06,43,10.70
2021,04,19,06,44,10.70
2021,04,19,06,45,10.70
2021,04,19,06,46,10.70
2021,04,19,06,47,10.70
2021,04,19,06,48,10.70
2021,04,19,06,49,10.70
2021,04,19,06,50,10.70
2021,04,19,06,51,10.70
2021,04,19,06,52,10.70
2021,04,19,06,53,10.70
2021,04,19,06,54,10.70
2021,04,19,06,55,10.70
2021,04,19,06,56,10.70
2021,04,19,06,57,10.70
2021,04,19,06,58,10.70
2021,04,19,06,59,10.70
2021,04,19,07,00,10.70
2021,04,19,07,01,10.70
2021,04,19,07,02,10.70
2021,04,19,07,03,10.70
2021,04,19,07,04,10.70
2021,04,19,07,05,10.70
2021,04,19,07,06,10.70
2021,04,19,07,07,10.70
2021,04,19,07,08,10.70
2021,04,19,07,09,10.70
2021,04,19,07,10,10.70
2021,04,19,07,11,10.80
2021,04,19,07,12,10.80
2021,04,19,07,13,10.80
2021,04,19,07,14,10.80
2021,04,19,07,15,10.80
2021,04,19,07,16,10.80
2021,04,19,07,17,10.90
2021,04,19,07,18,10.90
2021,04,19,07,19,10.90
2021,04,19,07,20,10.90
2021,04,19,07,21,11.00
2021,04,19,07,22,11.00
2021,04,19,07,23,11.00
2021,04,19,07,24,11.00
2021,04,19,07,25,11.10
2021,04,19,07,26,11.10
2021,04,19,07,27,11.10
2021,04,19,07,28,11.10
2021,04,19,07,29,11.10
2021,04,19,07,30,11.20
2021,04,19,07,31,11.20
2021,04,19,07,32,11.20
2021,04,19,07,33,11.20
2021,04,19,07,34,11.20
2021,04,19,07,35,11.20
2021,04,19,07,36,11.30
2021,04,19,07,37,11.30
2021,04,19,07,38,11.30
2021,04,19,07,39,11.30
2021,04,19,07,40,11.30
2021,04,19,07,41,11.40
2021,04,19,07,42,11.40
2021,04,19,07,43,11.40
2021,04,19,07,44,11.40
2021,04,19,07,45,11.50
2021,04,19,07,46,11.50
2021,04,19,07,47,11.60
2021,04,19,07,48,11.60
2021,04,19,07,49,11.60
2021,04,19,07,50,11.70
2021,04,19,07,51,11.70
2021,04,19,07,52,11.70
2021,04,19,07,53,11.80
2021,04,19,07,54,11.80
2021,04,19,07,55,11.90
2021,04,19,07,56,11.90
2021,04,19,07,57,12.00
2021,04,19,07,58,12.00
2021,04,19,07,59,12.10
2021,04,19,08,00,12.10
2021,04,19,08,01,12.20
2021,04,19,08,02,12.20
2021,04,19,08,03,12.30
2021,04,19,08,04,12.40
2021,04,19,08,05,12.50
2021,04,19,08,06,12.50
2021,04,19,08,07,12.60
2021,04,19,08,08,12.70
2021,04,19,08,09,12.70
2021,04,19,08,10,12.80
2021,04,19,08,11,12.90
2021,04,19,08,12,13.00
2021,04,19,08,13,13.00
2021,04,19,08,14,13.10
2021,04,19,08,15,13.10
2021,04,19,08,16,13.20
2021,04,19,08,17,13.20
2021,04,19,08,18,13.20
2021,04,19,08,19,13.30
2021,04,19,08,20,13.30
2021,04,19,08,21,13.30
2021,04,19,08,22,13.30
2021,04,19,08,23,13.40
2021,04,19,08,24,13.40
2021,04,19,08,25,13.40
2021,04,19,08,26,13.40
2021,04,19,08,27,13.40
2021,04,19,08,28,13.40
2021,04,19,08,29,13.40
2021,04,19,08,30,13.50
2021,04,19,08,31,13.50
2021,04,19,08,32,13.50
2021,04,19,08,33,13.60
2021,04,19,08,34,13.60
2021,04,19,08,35,13.70
2021,04,19,08,36,13.70
2021,04,19,08,37,13.70
2021,04,19,08,38,13.80
2021,04,19,08,39,13.80
2021,04,19,08,40,13.80
2021,04,19,08,41,13.90
2021,04,19,08,42,13.90
2021,04,19,08,43,14.00
2021,04,19,08,44,14.10
2021,04,19,08,45,14.10
2021,04,19,08,46,14.20
2021,04,19,08,47,14.30
2021,04,19,08,48,14.30
2021,04,19,08,49,14.40
2021,04,19,08,50,14.40
2021,04,19,08,51,14.50
2021,04,19,08,52,14.50
2021,04,19,08,53,14.60
2021,04,19,08,54,14.60
2021,04,19,08,55,14.70
2021,04,19,08,56,14.70
2021,04,19,08,57,14.70
2021,04,19,08,58,14.80
2021,04,19,08,59,14.80
2021,04,19,09,00,14.90
2021,04,19,09,01,14.90
2021,04,19,09,02,15.00
2021,04,19,09,03,15.00
2021,04,19,09,04,15.10
2021,04,19,09,05,15.10
2021,04,19,09,06,15.20
2021,04,19,09,07,15.20
2021,04,19,09,08,15.20
2021,04,19,09,09,15.20
2021,04,19,09,10,15.20
2021,04,19,09,11,15.20
2021,04,19,09,12,15.20
2021,04,19,09,13,15.20
2021,04,19,09,14,15.20
2021,04,19,09,15,15.10
2021,04,19,09,16,15.10
2021,04,19,09,17,15.10
2021,04,19,09,18,15.10
2021,04,19,09,19,15.10
2021,04,19,09,20,15.10
2021,04,19,09,21,15.20
2021,04,19,09,22,15.20
2021,04,19,09,23,15.20
2021,04,19,09,24,15.30
2021,04,19,09,25,15.30
2021,04,19,09,26,15.30
2021,04,19,09,27,15.40
2021,04,19,09,28,15.40
2021,04,19,09,29,15.50
2021,04,19,09,30,15.50
2021,04,19,09,31,15.60
2021,04,19,09,32,15.60
2021,04,19,09,33,15.70
2021,04,19,09,34,15.70
2021,04,19,09,35,15.70
2021,04,19,09,36,15.70
2021,04,19,09,37,15.70
2021,04,19,09,38,15.70
2021,04,19,09,39,15.70
2021,04,19,09,40,15.70
2021,04,19,09,41,15.80
2021,04,19,09,42,15.80
2021,04,19,09,43,15.70
2021,04,19,09,44,15.70
2021,04,19,09,45,15.70
2021,04,19,09,46,15.70
2021,04,19,09,47,15.70
2021,04,19,09,48,15.80
2021,04,19,09,49,15.80
2021,04,19,09,50,15.80
2021,04,19,09,51,15.90
2021,04,19,09,52,15.90
2021,04,19,09,53,15.90
2021,04,19,09,54,16.00
2021,04,19,09,55,16.00
2021,04,19,09,56,16.10
2021,04,19,09,57,16.10
2021,04,19,09,58,16.10
2021,04,19,09,59,16.20
2021,04,19,10,00,16.20
2021,04,19,10,01,16.20
2021,04,19,10,02,16.20
2021,04,19,10,03,16.30
2021,04,19,10,04,16.30
2021,04,19,10,05,16.40
2021,04,19,10,06,16.30
2021,04,19,10,07,16.40
2021,04,19,10,08,16.40
2021,04,19,10,09,16.40
2021,04,19,10,10,16.40
2021,04,19,10,11,16.40
2021,04,19,10,12,16.30
2021,04,19,10,13,16.30
2021,04,19,10,14,16.30
2021,04,19,10,15,16.40
2021,04,19,10,16,16.40
2021,04,19,10,17,16.40
2021,04,19,10,18,16.50
2021,04,19,10,19,16.50
2021,04,19,10,20,16.60
2021,04,19,10,21,16.60
2021,04,19,10,22,16.60
2021,04,19,10,23,16.70
2021,04,19,10,24,16.70
2021,04,19,10,25,16.80
2021,04,19,10,26,16.80
2021,04,19,10,27,16.80
2021,04,19,10,28,16.80
2021,04,19,10,29,16.80
2021,04,19,10,30,16.80
2021,04,19,10,31,16.80
2021,04,19,10,32,16.80
2021,04,19,10,33,16.80
2021,04,19,10,34,16.80
2021,04,19,10,35,16.80
2021,04,19,10,36,16.80
2021,04,19,10,37,16.80
2021,04,19,10,38,16.80
2021,04,19,10,39,16.90
2021,04,19,10,40,16.90
2021,04,19,10,41,16.90
2021,04,19,10,42,17.00
2021,04,19,10,43,17.00
2021,04,19,10,44,17.10
2021,04,19,10,45,17.10
2021,04,19,10,46,17.10
2021,04,19,10,47,17.20
2021,04,19,10,48,17.20
2021,04,19,10,49,17.20
2021,04,19,10,50,17.20
2021,04,19,10,51,17.20
2021,04,19,10,52,17.20
2021,04,19,10,53,17.20
2021,04,19,10,54,17.30
2021,04,19,10,55,17.30
2021,04,19,10,56,17.40
2021,04,19,10,57,17.40
2021,04,19,10,58,17.50
2021,04,19,10,59,17.50
2021,04,19,11,00,17.60
2021,04,19,11,01,17.60
2021,04,19,11,02,17.60
2021,04,19,11,03,17.60
2021,04,19,11,04,17.60
2021,04,19,11,05,17.70
2021,04,19,11,06,17.70
2021,04,19,11,07,17.60
2021,04,19,11,08,17.60
2021,04,19,11,09,17.60
2021,04,19,11,10,17.60
2021,04,19,11,11,17.60
2021,04,19,11,12,17.60
2021,04,19,11,13,17.60
2021,04,19,11,14,17.60
2021,04,19,11,15,17.70
2021,04,19,11,16,17.70
2021,04,19,11,17,17.70
2021,04,19,11,18,17.70
2021,04,19,11,19,17.70
2021,04,19,11,20,17.70
2021,04,19,11,21,17.70
2021,04,19,11,22,17.80
2021,04,19,11,23,17.80
2021,04,19,11,24,17.80
2021,04,19,11,25,17.80
2021,04,19,11,26,17.80
2021,04,19,11,27,17.80
2021,04,19,11,28,17.70
2021,04,19,11,29,17.70
2021,04,19,11,30,17.70
2021,04,19,11,31,17.70
2021,04,19,11,32,17.80
2021,04,19,11,33,17.80
2021,04,19,11,34,17.90
2021,04,19,11,35,17.90
2021,04,19,11,36,17.90
2021,04,19,11,37,17.90
2021,04,19,11,38,17.90
2021,04,19,11,39,18.00
2021,04,19,11,40,18.00
2021,04,19,11,41,18.10
2021,04,19,11,42,18.10
2021,04,19,11,43,18.00
2021,04,19,11,44,18.00
2021,04,19,11,45,18.00
2021,04,19,11,46,18.00
2021,04,19,11,47,18.00
2021,04,19,11,48,18.10
2021,04,19,11,49,18.10
2021,04,19,11,50,18.10
2021,04,19,11,51,18.10
2021,04,19,11,52,18.20
2021,04,19,11,53,18.20
2021,04,19,11,54,18.20
2021,04,19,11,55,18.20
2021,04,19,11,56,18.20
2021,04,19,11,57,18.30
2021,04,19,11,58,18.30
2021,04,19,11,59,18.30
2021,04,19,12,00,18.30
2021,04,19,12,01,18.30
2021,04,19,12,02,18.30
2021,04,19,12,03,18.30
2021,04,19,12,04,18.20
2021,04,19,12,05,18.10
2021,04,19,12,06,18.10
2021,04,19,12,07,18.10
2021,04,19,12,08,18.10
2021,04,19,12,09,18.10
2021,04,19,12,10,18.10
2021,04,19,12,11,18.20
2021,04,19,12,12,18.20
2021,04,19,12,13,18.20
2021,04,19,12,14,18.30
2021,04,19,12,15,18.30
2021,04,19,12,16,18.30
2021,04,19,12,17,18.30
2021,04,19,12,18,18.40
2021,04,19,12,19,18.40
2021,04,19,12,20,18.50
2021,04,19,12,21,18.50
2021,04,19,12,22,18.40
2021,04,19,12,23,18.40
2021,04,19,12,24,18.40
2021,04,19,12,25,18.40
2021,04,19,12,26,18.40
2021,04,19,12,27,18.40
2021,04,19,12,28,18.40
2021,04,19,12,29,18.50
2021,04,19,12,30,18.50
2021,04,19,12,31,18.50
2021,04,19,12,32,18.50
2021,04,19,12,33,18.50
2021,04,19,12,34,18.60
2021,04,19,12,35,18.60
2021,04,19,12,36,18.70
2021,04,19,12,37,18.70
2021,04,19,12,38,18.80
2021,04,19,12,39,18.80
2021,04,19,12,40,18.80
2021,04,19,12,41,18.80
2021,04,19,12,42,18.80
2021,04,19,12,43,18.80
2021,04,19,12,44,18.80
2021,04,19,12,45,18.90
2021,04,19,12,46,18.90
2021,04,19,12,47,18.90
2021,04,19,12,48,19.00
2021,04,19,12,49,18.90
2021,04,19,12,50,18.90
2021,04,19,12,51,18.90
2021,04,19,12,52,18.90
2021,04,19,12,53,18.90
2021,04,19,12,54,18.90
2021,04,19,12,55,19.00
2021,04,19,12,56,19.10
2021,04,19,12,57,19.10
2021,04,19,12,58,19.10
2021,04,19,12,59,19.10
2021,04,19,13,00,19.00
2021,04,19,13,01,19.10
2021,04,19,13,02,19.10
2021,04,19,13,03,19.10
2021,04,19,13,04,19.20
2021,04,19,13,05,19.20
2021,04,19,13,06,19.10
2021,04,19,13,07,19.10
2021,04,19,13,08,19.10
2021,04,19,13,09,19.10
2021,04,19,13,10,19.10
2021,04,19,13,11,19.20
2021,04,19,13,12,19.20
2021,04,19,13,13,19.30
2021,04,19,13,14,19.30
2021,04,19,13,15,19.30
2021,04,19,13,16,19.30
2021,04,19,13,17,19.30
2021,04,19,13,18,19.30
2021,04,19,13,19,19.40
2021,04,19,13,20,19.40
2021,04,19,13,21,19.40
2021,04,19,13,22,19.40
2021,04,19,13,23,19.40
2021,04,19,13,24,19.40
2021,04,19,13,25,19.40
2021,04,19,13,26,19.40
2021,04,19,13,27,19.40
2021,04,19,13,28,19.40
2021,04,19,13,29,19.40
2021,04,19,13,30,19.30
2021,04,19,13,31,19.30
2021,04,19,13,32,19.30
2021,04,19,13,33,19.30
2021,04,19,13,34,19.30
2021,04,19,13,35,19.30
2021,04,19,13,36,19.30
2021,04,19,13,37,19.30
2021,04,19,13,38,19.30
2021,04,19,13,39,19.30
2021,04,19,13,40,19.40
2021,04,19,13,41,19.40
2021,04,19,13,42,19.40
2021,04,19,13,43,19.30
2021,04,19,13,44,19.30
2021,04,19,13,45,19.30
2021,04,19,13,46,19.30
2021,04,19,13,47,19.40
2021,04,19,13,48,19.40
2021,04,19,13,49,19.50
2021,04,19,13,50,19.50
2021,04,19,13,51,19.50
2021,04,19,13,52,19.50
2021,04,19,13,53,19.60
2021,04,19,13,54,19.60
2021,04,19,13,55,19.60
2021,04,19,13,56,19.60
2021,04,19,13,57,19.60
2021,04,19,13,58,19.60
2021,04,19,13,59,19.60
2021,04,19,14,00,19.60
2021,04,19,14,01,19.70
2021,04,19,14,02,19.70
2021,04,19,14,03,19.70
2021,04,19,14,04,19.60
2021,04,19,14,05,19.60
2021,04,19,14,06,19.50
2021,04,19,14,07,19.50
2021,04,19,14,08,19.60
2021,04,19,14,09,19.60
2021,04,19,14,10,19.70
2021,04,19,14,11,19.80
2021,04,19,14,12,19.80
2021,04,19,14,13,19.80
2021,04,19,14,14,19.90
2021,04,19,14,15,19.90
2021,04,19,14,16,19.90
2021,04,19,14,17,20.00
2021,04,19,14,18,20.00
2021,04,19,14,19,20.10
2021,04,19,14,20,20.10
2021,04,19,14,21,20.10
2021,04,19,14,22,20.00
2021,04,19,14,23,20.00
2021,04,19,14,24,20.10
2021,04,19,14,25,20.00
2021,04,19,14,26,20.00
2021,04,19,14,27,19.90
2021,04,19,14,28,19.90
2021,04,19,14,29,19.90
2021,04,19,14,30,19.90
2021,04,19,14,31,19.90
2021,04,19,14,32,20.00
2021,04,19,14,33,20.00
2021,04,19,14,34,20.10
2021,04,19,14,35,20.10
2021,04,19,14,36,20.10
2021,04,19,14,37,20.10
2021,04,19,14,38,20.10
2021,04,19,14,39,20.10
2021,04,19,14,40,20.10
2021,04,19,14,41,20.10
2021,04,19,14,42,20.10
2021,04,19,14,43,20.00
2021,04,19,14,44,19.90
2021,04,19,14,45,19.90
2021,04,19,14,46,19.90
2021,04,19,14,47,19.80
2021,04,19,14,48,19.90
2021,04,19,14,49,19.90
2021,04,19,14,50,20.00
2021,04,19,14,51,20.10
2021,04,19,14,52,20.20
2021,04,19,14,53,20.20
2021,04,19,14,54,20.20
2021,04,19,14,55,20.20
2021,04,19,14,56,20.30
2021,04,19,14,57,20.30
2021,04,19,14,58,20.20
2021,04,19,14,59,20.20
2021,04,19,15,00,20.20
2021,04,19,15,01,20.20
2021,04,19,15,02,20.20
2021,04,19,15,03,20.20
2021,04,19,15,04,20.30
2021,04,19,15,05,20.30
2021,04,19,15,06,20.40
2021,04,19,15,07,20.50
2021,04,19,15,08,20.50
2021,04,19,15,09,20.60
2021,04,19,15,10,20.50
2021,04,19,15,11,20.50
2021,04,19,15,12,20.50
2021,04,19,15,13,20.50
2021,04,19,15,14,20.60
2021,04,19,15,15,20.60
2021,04,19,15,16,20.60
2021,04,19,15,17,20.70
2021,04,19,15,18,20.80
2021,04,19,15,19,20.80
2021,04,19,15,20,20.90
2021,04,19,15,21,20.90
2021,04,19,15,22,20.90
2021,04,19,15,23,20.90
2021,04,19,15,24,20.90
2021,04,19,15,25,20.90
2021,04,19,15,26,20.90
2021,04,19,15,27,20.90
2021,04,19,15,28,21.00
2021,04,19,15,29,21.00
2021,04,19,15,30,21.10
2021,04,19,15,31,21.10
2021,04,19,15,32,21.10
2021,04,19,15,33,21.20
2021,04,19,15,34,21.20
2021,04,19,15,35,21.20
2021,04,19,15,36,21.20
2021,04,19,15,37,21.10
2021,04,19,15,38,21.10
2021,04,19,15,39,21.10
2021,04,19,15,40,21.00
2021,04,19,15,41,21.10
2021,04,19,15,42,21.10
2021,04,19,15,43,21.10
2021,04,19,15,44,21.20
2021,04,19,15,45,21.20
2021,04,19,15,46,21.30
2021,04,19,15,47,21.30
2021,04,19,15,48,21.30
2021,04,19,15,49,21.30
2021,04,19,15,50,21.30
2021,04,19,15,51,21.20
2021,04,19,15,52,21.20
2021,04,19,15,53,21.20
2021,04,19,15,54,21.20
2021,04,19,15,55,21.20
2021,04,19,15,56,21.20
2021,04,19,15,57,21.20
2021,04,19,15,58,21.20
2021,04,19,15,59,21.10
2021,04,19,16,00,21.10
2021,04,19,16,01,21.10
2021,04,19,16,02,21.00
2021,04,19,16,03,21.00
2021,04,19,16,04,21.00
2021,04,19,16,05,21.00
2021,04,19,16,06,21.00
2021,04,19,16,07,20.90
2021,04,19,16,08,20.90
2021,04,19,16,09,20.90
2021,04,19,16,10,20.90
2021,04,19,16,11,21.00
2021,04,19,16,12,21.00
2021,04,19,16,13,21.00
2021,04,19,16,14,21.00
2021,04,19,16,15,21.00
2021,04,19,16,16,21.00
2021,04,19,16,17,21.00
2021,04,19,16,18,21.00
2021,04,19,16,19,20.90
2021,04,19,16,20,20.90
2021,04,19,16,21,20.90
2021,04,19,16,22,20.90
2021,04,19,16,23,20.90
2021,04,19,16,24,20.80
2021,04,19,16,25,20.80
2021,04,19,16,26,20.90
2021,04,19,16,27,20.90
2021,04,19,16,28,21.00
2021,04,19,16,29,21.00
2021,04,19,16,30,21.00
2021,04,19,16,31,20.90
2021,04,19,16,32,20.90
2021,04,19,16,33,20.90
2021,04,19,16,34,20.90
2021,04,19,16,35,20.90
2021,04,19,16,36,21.00
2021,04,19,16,37,21.00
2021,04,19,16,38,21.00
2021,04,19,16,39,20.90
2021,04,19,16,40,20.90
2021,04,19,16,41,21.00
2021,04,19,16,42,21.00
2021,04,19,16,43,21.00
2021,04,19,16,44,21.00
2021,04,19,16,45,21.10
2021,04,19,16,46,21.10
2021,04,19,16,47,21.10
2021,04,19,16,48,21.00
2021,04,19,16,49,21.00
2021,04,19,16,50,20.90
2021,04,19,16,51,20.90
2021,04,19,16,52,20.90
2021,04,19,16,53,20.90
2021,04,19,16,54,21.00
2021,04,19,16,55,21.00
2021,04,19,16,56,20.90
2021,04,19,16,57,20.90
2021,04,19,16,58,20.90
2021,04,19,16,59,20.90
2021,04,19,17,00,21.00
2021,04,19,17,01,21.00
2021,04,19,17,02,21.10
2021,04,19,17,03,21.10
2021,04,19,17,04,21.20
2021,04,19,17,05,21.20
2021,04,19,17,06,21.30
2021,04,19,17,07,21.30
2021,04,19,17,08,21.40
2021,04,19,17,09,21.40
2021,04,19,17,10,21.40
2021,04,19,17,11,21.40
2021,04,19,17,12,21.40
2021,04,19,17,13,21.40
2021,04,19,17,14,21.30
2021,04,19,17,15,21.30
2021,04,19,17,16,21.20
2021,04,19,17,17,21.20
2021,04,19,17,18,21.20
2021,04,19,17,19,21.20